X  Close Clear throughout the day.
Conditions Temperature Feels Precipitation Wind Wind Direction UV index Pressure
03:00 clear-night Clear 22° 14° - 6-19 mph NNW NNW - 1030,90
04:00 clear-night Clear 21° 13° - 6-18 mph NNW NNW - 1031,40
05:00 clear-night Clear 20° 12° 0 in 1% 6-16 mph NNW NNW - 1032,00
06:00 clear-night Clear 19° 10° - 7-15 mph NNW NNW - 1032,30
07:00 clear-night Clear 18° 9° - 7-14 mph NNW NNW - 1032,80
08:00 clear-day Clear 20° 11° 0 in 1% 7-14 mph NNW NNW - 1033,40
09:00 clear-day Clear 23° 14° 0 in 1% 8-18 mph NNW NNW - 1033,70
10:00 clear-day Clear 26° 17° 0 in 1% 8-18 mph NNW NNW uv-1 1033,80
11:00 clear-day Clear 29° 20° 0 in 1% 9-17 mph North North uv-2 1033,60
12:00 clear-day Clear 31° 23° 0 in 1% 9-16 mph NNW NNW uv-2 1032,50
13:00 clear-day Clear 33° 26° 0 in 1% 8-15 mph NNW NNW uv-2 1031,90
14:00 clear-day Clear 34° 27° 0 in 1% 8-14 mph NNW NNW uv-1 1031,50
15:00 clear-day Clear 34° 28° - 8-14 mph NNW NNW uv-1 1031,00
16:00 clear-day Clear 33° 27° 0 in 1% 8-14 mph NNW NNW - 1031,40
17:00 clear-day Clear 30° 24° - 7-14 mph NNW NNW - 1031,30
18:00 clear-night Clear 28° 22° - 6-14 mph NNW NNW - 1032,00
19:00 clear-night Clear 26° 20° - 5-14 mph NNW NNW - 1032,40
20:00 clear-night Clear 25° 19° - 5-14 mph NNW NNW - 1032,50
21:00 clear-night Clear 25° 18° - 6-15 mph NNW NNW - 1032,30
22:00 clear-night Clear 25° 17° - 6-15 mph NNW NNW - 1032,20
23:00 clear-night Clear 24° 17° - 6-15 mph NNW NNW - 1032,20
00:00 clear-night Clear 24° 17° - 6-16 mph NNW NNW - 1031,80
01:00 clear-night Clear 24° 16° - 6-16 mph NNW NNW - 1031,60
02:00 clear-night Clear 23° 16° - 6-16 mph NNW NNW - 1031,50
03:00 clear-night Clear 23° 16° - 6-16 mph NNW NNW - 1031,70
04:00 clear-night Clear 23° 16° - 6-15 mph NNW NNW - 1031,70
05:00 clear-night Clear 22° 16° - 5-13 mph NNW NNW - 1031,90
06:00 clear-night Clear 22° 15° - 5-11 mph NNW NNW - 1032,30
07:00 clear-night Clear 22° 16° - 4-9 mph NNW NNW - 1032,70
08:00 clear-day Clear 22° 17° - 4-8 mph NNW NNW - 1033,00
09:00 clear-day Clear 25° 20° - 4-7 mph NNW NNW - 1033,20
10:00 clear-day Clear 27° 24° - 3-6 mph NNW NNW uv-1 1033,20
11:00 clear-day Clear 30° 27° - 3-5 mph North North uv-2 1033,10
12:00 clear-day Clear 33° - 3-4 mph North North uv-2 1032,30
13:00 clear-day Clear 36° - 2-4 mph NW NW uv-2 1031,70
14:00 clear-day Clear 37° - 2-3 mph NW NW uv-2 1031,20
15:00 clear-day Clear 38° - 2-3 mph NNE NNE uv-1 1030,60
16:00 clear-day Clear 38° - 2-3 mph North North - 1030,40
17:00 clear-day Clear 35° - 2-3 mph NNE NNE - 1030,50
18:00 clear-night Clear 32° - 2-3 mph NNE NNE - 1030,90
19:00 clear-night Clear 30° - 2-3 mph NNE NNE - 1031,20
20:00 clear-night Clear 29° - 2-2 mph NNE NNE - 1031,30
21:00 partly-cloudy-night Partly Cloudy 28° - 2-2 mph NNE NNE - 1031,30
22:00 partly-cloudy-night Partly Cloudy 28° - 2-2 mph NE NE - 1031,30
23:00 partly-cloudy-night Partly Cloudy 27° - 2-2 mph NNE NNE - 1031,20
00:00 partly-cloudy-night Partly Cloudy 27° - 2-2 mph NE NE - 1030,90
01:00 partly-cloudy-night Partly Cloudy 27° - 2-2 mph NW NW - 1030,70
02:00 partly-cloudy-night Partly Cloudy 27° - 3-3 mph NW NW - 1030,50
03:00 partly-cloudy-night Partly Cloudy 26° - 3-3 mph NNW NNW - 1030,20